SKW4179 KLAS-KSNA

Flight info

Callsign SKW4179
Flight time 0h 37m
Altitude 24000
Route RADYR2 SLVRR FEYLA DSNEE6
Aircraft CRJ9/M-SDFGIRWY/S

Departure

Time 2026-05-06 03:33
Airport Harry Reid International Airport (KLAS)

Arrival

Time 2026-05-06 04:11
Airport John Wayne Orange County International Airport (KSNA)
Time Latitude Longitude Altitude Speed Heading
2026-05-06 03:14 36.07971 -115.14010 2113 ft 0 kts 25°
2026-05-06 03:23 36.07954 -115.14019 2114 ft 4 kts 29°
2026-05-06 03:23 36.07931 -115.14036 2115 ft 4 kts 31°
2026-05-06 03:24 36.07911 -115.14052 2115 ft 4 kts 50°
2026-05-06 03:24 36.07910 -115.14076 2115 ft 4 kts 109°
2026-05-06 03:24 36.07916 -115.14102 2115 ft 0 kts 102°
2026-05-06 03:25 36.07916 -115.14100 2115 ft 1 kts 105°
2026-05-06 03:26 36.07906 -115.14078 2115 ft 3 kts 128°
2026-05-06 03:26 36.07894 -115.14062 2118 ft 3 kts 131°
2026-05-06 03:26 36.07860 -115.14018 2118 ft 9 kts 134°
2026-05-06 03:26 36.07830 -115.13964 2121 ft 6 kts 103°
2026-05-06 03:27 36.07827 -115.13924 2124 ft 5 kts 90°
2026-05-06 03:27 36.07827 -115.13873 2125 ft 7 kts 91°
2026-05-06 03:27 36.07805 -115.13801 2124 ft 11 kts 154°
2026-05-06 03:27 36.07755 -115.13742 2125 ft 10 kts 97°
2026-05-06 03:28 36.07753 -115.13648 2123 ft 13 kts 90°
2026-05-06 03:28 36.07753 -115.13518 2124 ft 17 kts 90°
2026-05-06 03:28 36.07754 -115.13378 2125 ft 16 kts 90°
2026-05-06 03:28 36.07754 -115.13233 2122 ft 18 kts 90°
2026-05-06 03:29 36.07754 -115.13075 2121 ft 19 kts 89°
2026-05-06 03:29 36.07754 -115.12916 2120 ft 19 kts 90°
2026-05-06 03:29 36.07754 -115.12751 2117 ft 20 kts 90°
2026-05-06 03:29 36.07754 -115.12577 2117 ft 20 kts 90°
2026-05-06 03:30 36.07754 -115.12415 2119 ft 18 kts 90°
2026-05-06 03:30 36.07754 -115.12256 2119 ft 18 kts 90°
2026-05-06 03:30 36.07747 -115.12156 2119 ft 6 kts 118°
2026-05-06 03:30 36.07741 -115.12145 2120 ft 0 kts 131°
2026-05-06 03:31 36.07737 -115.12141 2120 ft 3 kts 141°
2026-05-06 03:31 36.07692 -115.12124 2122 ft 8 kts 178°
2026-05-06 03:32 36.07647 -115.12155 2123 ft 10 kts 252°
2026-05-06 03:32 36.07643 -115.12229 2122 ft 17 kts 269°
2026-05-06 03:32 36.07642 -115.12598 2122 ft 71 kts 270°
2026-05-06 03:32 36.07642 -115.13415 2122 ft 120 kts 270°
2026-05-06 03:33 36.07635 -115.14617 2124 ft 158 kts 269°
2026-05-06 03:33 36.07653 -115.16021 2467 ft 167 kts 270°
2026-05-06 03:33 36.07709 -115.17472 2946 ft 172 kts 270°
2026-05-06 03:33 36.07771 -115.19014 3397 ft 187 kts 270°
2026-05-06 03:34 36.07840 -115.20686 3881 ft 204 kts 269°
2026-05-06 03:34 36.07820 -115.22543 4239 ft 232 kts 262°
2026-05-06 03:34 36.07396 -115.24522 4919 ft 243 kts 243°
2026-05-06 03:34 36.06337 -115.26146 5828 ft 246 kts 215°
2026-05-06 03:35 36.04788 -115.27078 6750 ft 251 kts 200°
2026-05-06 03:35 36.03081 -115.27765 7405 ft 267 kts 198°
2026-05-06 03:35 36.01257 -115.28471 8025 ft 283 kts 198°
2026-05-06 03:35 35.99353 -115.29241 8009 ft 288 kts 199°
2026-05-06 03:36 35.97436 -115.29884 7996 ft 285 kts 193°
2026-05-06 03:36 35.95490 -115.30363 8386 ft 286 kts 192°
2026-05-06 03:36 35.93522 -115.30789 8828 ft 288 kts 191°
2026-05-06 03:36 35.91544 -115.31219 9714 ft 291 kts 191°
2026-05-06 03:37 35.89534 -115.31685 10458 ft 301 kts 192°
2026-05-06 03:37 35.87380 -115.32216 10660 ft 329 kts 192°
2026-05-06 03:37 35.85063 -115.32804 10975 ft 351 kts 192°
2026-05-06 03:37 35.82604 -115.33416 11341 ft 369 kts 192°
2026-05-06 03:38 35.80031 -115.34052 11763 ft 385 kts 192°
2026-05-06 03:38 35.77362 -115.34705 12316 ft 395 kts 192°
2026-05-06 03:38 35.74652 -115.35371 13021 ft 399 kts 192°
2026-05-06 03:38 35.71912 -115.36042 13730 ft 403 kts 191°
2026-05-06 03:39 35.69147 -115.36717 14408 ft 407 kts 191°
2026-05-06 03:39 35.66357 -115.37396 15099 ft 410 kts 191°
2026-05-06 03:39 35.63544 -115.38077 15738 ft 414 kts 192°
2026-05-06 03:39 35.60870 -115.39262 16309 ft 418 kts 211°
2026-05-06 03:40 35.58603 -115.41495 16894 ft 420 kts 226°
2026-05-06 03:40 35.56629 -115.44176 17418 ft 424 kts 230°
2026-05-06 03:40 35.54729 -115.46952 17947 ft 427 kts 230°
2026-05-06 03:40 35.52793 -115.49737 18450 ft 432 kts 230°
2026-05-06 03:41 35.50795 -115.52508 18954 ft 435 kts 228°
2026-05-06 03:41 35.48745 -115.55268 19398 ft 440 kts 228°
2026-05-06 03:41 35.46702 -115.58015 19829 ft 444 kts 228°
2026-05-06 03:41 35.44608 -115.60812 20260 ft 447 kts 227°
2026-05-06 03:42 35.42478 -115.63613 20662 ft 451 kts 227°
2026-05-06 03:42 35.40336 -115.66442 21070 ft 454 kts 228°
2026-05-06 03:42 35.38201 -115.69317 21477 ft 457 kts 227°
2026-05-06 03:42 35.36046 -115.72198 21853 ft 461 kts 227°
2026-05-06 03:43 35.33880 -115.75108 22200 ft 464 kts 228°
2026-05-06 03:43 35.31692 -115.78037 22559 ft 467 kts 228°
2026-05-06 03:43 35.29490 -115.80978 22920 ft 470 kts 227°
2026-05-06 03:43 35.27274 -115.83932 23224 ft 473 kts 227°
2026-05-06 03:44 35.25046 -115.86903 23545 ft 475 kts 227°
2026-05-06 03:44 35.22796 -115.89887 23759 ft 480 kts 227°
2026-05-06 03:44 35.20521 -115.92885 23850 ft 482 kts 227°
2026-05-06 03:44 35.18203 -115.95852 23892 ft 483 kts 226°
2026-05-06 03:45 35.15866 -115.98792 23910 ft 482 kts 226°
2026-05-06 03:45 35.13532 -116.01729 23923 ft 481 kts 226°
2026-05-06 03:45 35.11211 -116.04656 23927 ft 480 kts 226°
2026-05-06 03:45 35.08887 -116.07581 23926 ft 480 kts 226°
2026-05-06 03:46 35.06563 -116.10501 23933 ft 479 kts 226°
2026-05-06 03:46 35.04242 -116.13419 23934 ft 478 kts 226°
2026-05-06 03:46 35.01923 -116.16329 23935 ft 478 kts 226°
2026-05-06 03:46 34.99609 -116.19234 23942 ft 477 kts 226°
2026-05-06 03:47 34.97299 -116.22132 23946 ft 476 kts 226°
2026-05-06 03:47 34.94987 -116.25028 23955 ft 476 kts 226°
2026-05-06 03:47 34.92676 -116.27917 23958 ft 476 kts 226°
2026-05-06 03:47 34.90368 -116.30801 23962 ft 475 kts 226°
2026-05-06 03:48 34.88059 -116.33688 23957 ft 475 kts 225°
2026-05-06 03:48 34.85773 -116.36519 23959 ft 475 kts 225°
2026-05-06 03:48 34.83473 -116.39405 23956 ft 475 kts 226°
2026-05-06 03:48 34.81168 -116.42348 23971 ft 474 kts 226°
2026-05-06 03:49 34.78929 -116.45207 23980 ft 473 kts 226°
2026-05-06 03:49 34.76653 -116.48096 23983 ft 472 kts 226°
2026-05-06 03:49 34.74382 -116.50980 23986 ft 472 kts 226°
2026-05-06 03:49 34.72111 -116.53866 23988 ft 472 kts 226°
2026-05-06 03:50 34.69839 -116.56736 23993 ft 471 kts 226°
2026-05-06 03:50 34.67517 -116.59547 23994 ft 471 kts 223°
2026-05-06 03:50 34.65077 -116.62213 23995 ft 471 kts 221°
2026-05-06 03:50 34.62598 -116.64800 23987 ft 470 kts 220°
2026-05-06 03:51 34.60125 -116.67379 23982 ft 461 kts 221°
2026-05-06 03:51 34.57772 -116.69907 23400 ft 447 kts 222°
2026-05-06 03:51 34.55472 -116.72397 22638 ft 440 kts 221°
2026-05-06 03:51 34.53204 -116.74847 21879 ft 433 kts 221°
2026-05-06 03:52 34.50969 -116.77252 21125 ft 427 kts 222°
2026-05-06 03:52 34.48767 -116.79629 20376 ft 421 kts 222°
2026-05-06 03:52 34.46594 -116.81976 19627 ft 416 kts 222°
2026-05-06 03:52 34.44450 -116.84287 18946 ft 409 kts 222°
2026-05-06 03:53 34.42343 -116.86554 18348 ft 401 kts 222°
2026-05-06 03:53 34.40276 -116.88775 17746 ft 394 kts 222°
2026-05-06 03:53 34.38245 -116.90954 17154 ft 388 kts 222°
2026-05-06 03:53 34.36243 -116.93104 16588 ft 381 kts 222°
2026-05-06 03:54 34.34275 -116.95215 16071 ft 375 kts 222°
2026-05-06 03:54 34.32339 -116.97294 15545 ft 369 kts 223°
2026-05-06 03:54 34.30427 -116.99339 15020 ft 365 kts 222°
2026-05-06 03:54 34.28564 -117.01335 14507 ft 360 kts 222°
2026-05-06 03:55 34.26659 -117.03329 14057 ft 354 kts 219°
2026-05-06 03:55 34.24701 -117.04992 13871 ft 344 kts 212°
2026-05-06 03:55 34.22653 -117.06442 13710 ft 339 kts 210°
2026-05-06 03:55 34.20588 -117.07847 13554 ft 334 kts 210°
2026-05-06 03:56 34.18600 -117.09196 13399 ft 330 kts 210°
2026-05-06 03:56 34.16614 -117.10554 13226 ft 326 kts 208°
2026-05-06 03:56 34.14591 -117.11749 13065 ft 322 kts 205°
2026-05-06 03:56 34.12542 -117.12813 12912 ft 319 kts 203°
2026-05-06 03:57 34.10509 -117.13842 12752 ft 316 kts 203°
2026-05-06 03:57 34.08473 -117.14871 12633 ft 322 kts 203°
2026-05-06 03:57 34.06410 -117.15954 12504 ft 324 kts 204°
2026-05-06 03:57 34.04357 -117.17049 12361 ft 321 kts 204°
2026-05-06 03:58 34.02330 -117.18131 12213 ft 317 kts 204°
2026-05-06 03:58 34.00323 -117.19211 12062 ft 312 kts 207°
2026-05-06 03:58 33.98626 -117.20769 11764 ft 306 kts 227°
2026-05-06 03:58 33.97233 -117.22682 11474 ft 301 kts 232°
2026-05-06 03:59 33.95928 -117.24627 11173 ft 297 kts 232°
2026-05-06 03:59 33.94640 -117.26560 10870 ft 294 kts 232°
2026-05-06 03:59 33.93356 -117.28456 10560 ft 291 kts 231°
2026-05-06 03:59 33.92065 -117.30309 10263 ft 288 kts 231°
2026-05-06 04:00 33.90777 -117.32140 9959 ft 285 kts 231°
2026-05-06 04:00 33.89502 -117.33946 9658 ft 282 kts 231°
2026-05-06 04:00 33.88242 -117.35730 9351 ft 277 kts 231°
2026-05-06 04:00 33.87006 -117.37474 9045 ft 271 kts 231°
2026-05-06 04:01 33.85787 -117.39173 8731 ft 265 kts 231°
2026-05-06 04:01 33.84611 -117.40829 8414 ft 257 kts 231°
2026-05-06 04:01 33.83470 -117.42445 8165 ft 250 kts 231°
2026-05-06 04:01 33.82364 -117.44007 8076 ft 239 kts 231°
2026-05-06 04:02 33.81455 -117.45620 8034 ft 228 kts 245°
2026-05-06 04:02 33.80856 -117.47345 8007 ft 218 kts 251°
2026-05-06 04:02 33.80364 -117.49027 7990 ft 209 kts 252°
2026-05-06 04:02 33.79900 -117.50647 8001 ft 201 kts 252°
2026-05-06 04:03 33.79459 -117.52242 8012 ft 202 kts 257°
2026-05-06 04:03 33.79520 -117.53904 8015 ft 201 kts 282°
2026-05-06 04:03 33.79797 -117.55574 8024 ft 207 kts 282°
2026-05-06 04:03 33.80075 -117.57261 8032 ft 211 kts 282°
2026-05-06 04:04 33.80358 -117.58979 7823 ft 208 kts 281°
2026-05-06 04:04 33.80637 -117.60671 7586 ft 204 kts 281°
2026-05-06 04:04 33.80914 -117.62329 7330 ft 201 kts 282°
2026-05-06 04:04 33.81191 -117.63961 7093 ft 198 kts 282°
2026-05-06 04:05 33.81467 -117.65568 6846 ft 195 kts 282°
2026-05-06 04:05 33.81743 -117.67163 6604 ft 194 kts 282°
2026-05-06 04:05 33.82021 -117.68750 6355 ft 193 kts 282°
2026-05-06 04:05 33.82293 -117.70301 6268 ft 183 kts 282°
2026-05-06 04:06 33.82558 -117.71801 5971 ft 184 kts 282°
2026-05-06 04:06 33.82823 -117.73304 5616 ft 184 kts 281°
2026-05-06 04:06 33.82723 -117.74827 5205 ft 186 kts 249°
2026-05-06 04:06 33.82276 -117.76284 4847 ft 186 kts 251°
2026-05-06 04:07 33.81841 -117.77766 4414 ft 190 kts 248°
2026-05-06 04:07 33.80992 -117.78967 3936 ft 195 kts 210°
2026-05-06 04:07 33.79751 -117.79648 3476 ft 197 kts 203°
2026-05-06 04:07 33.78495 -117.80262 2984 ft 192 kts 202°
2026-05-06 04:08 33.77272 -117.80838 2467 ft 187 kts 202°
2026-05-06 04:08 33.76095 -117.81447 1948 ft 184 kts 206°
2026-05-06 04:08 33.74962 -117.82134 1552 ft 176 kts 210°
2026-05-06 04:08 33.73954 -117.82798 1401 ft 160 kts 210°
2026-05-06 04:09 33.73014 -117.83412 1148 ft 149 kts 210°
2026-05-06 04:09 33.72135 -117.83993 931 ft 140 kts 211°
2026-05-06 04:09 33.71275 -117.84553 755 ft 142 kts 210°
2026-05-06 04:09 33.70395 -117.85092 595 ft 142 kts 208°
2026-05-06 04:10 33.69524 -117.85642 399 ft 140 kts 210°
2026-05-06 04:10 33.68675 -117.86189 209 ft 137 kts 210°
2026-05-06 04:10 33.67839 -117.86716 57 ft 128 kts 208°
2026-05-06 04:10 33.67223 -117.87106 55 ft 62 kts 208°
2026-05-06 04:11 33.67041 -117.87218 61 ft 14 kts 193°
2026-05-06 04:11 33.66953 -117.87202 63 ft 13 kts 149°
2026-05-06 04:11 33.66916 -117.87158 62 ft 0 kts 118°